Terminal Aerodrome Forecast
Issued by NWS Knoxville/Tri Cities, TN

Home | Current Version | Previous Version | Text Only | Print | Product List | Glossary On
Versions: 1 2 3 4 5 6 7 8 9 10 11 12 13 14 15 16 17 18 19 20 21 22 23 24 25 26 27 28 29 30 31 32 33
000
FTUS44 KMRX 220521
TAFCHA
TAF
KCHA 220521Z 2206/2306 00000KT P6SM SCT070 BKN150
     FM220900 00000KT P6SM SCT015 BKN080
     FM221300 14003KT P6SM BKN025
     FM221600 15004KT P6SM VCTS BKN035CB
     FM222000 VRB03KT P6SM SCT040 BKN100
     FM230100 00000KT P6SM FEW045 BKN150=

USA.gov is the U.S. government's official web portal to all federal, state and local government web resources and services.